| time (UTC) | temp C | wind direction | speed KPH | gust KPH | rain 1hr cm | rain 24hr cm | rain mn cm | humidity % | barometer mb |
| 20260503235844 | 12 | 81 | 0.0 | 0.0 | 0.00 | 0.00 | 0.00 | 53 | 1016.5 |
| 20260503235342 | 13 | 77 | 0.0 | 0.0 | 0.00 | 0.00 | 0.00 | 50 | 1016.3 |
| 20260503234839 | 13 | 76 | 0.0 | 0.0 | 0.00 | 0.00 | 0.00 | 49 | 1016.3 |
| 20260503234336 | 13 | 80 | 0.0 | 0.0 | 0.00 | 0.00 | 0.00 | 47 | 1016.3 |
| 20260503233834 | 14 | 80 | 0.0 | 0.0 | 0.00 | 0.00 | 0.00 | 45 | 1016.3 |
| 20260503233330 | 15 | 80 | 0.0 | 0.0 | 0.00 | 0.00 | 0.00 | 45 | 1016.3 |
| 20260503232826 | 15 | 80 | 0.0 | 0.0 | 0.00 | 0.00 | 0.00 | 43 | 1016.2 |
| 20260503232324 | 15 | 80 | 0.0 | 0.0 | 0.00 | 0.00 | 0.00 | 43 | 1016.3 |
| 20260503231821 | 16 | 79 | 0.0 | 0.0 | 0.00 | 0.00 | 0.00 | 39 | 1016.3 |
| 20260503231318 | 16 | 77 | 0.0 | 0.0 | 0.00 | 0.00 | 0.00 | 35 | 1016.1 |
| 20260503230814 | 16 | 77 | 0.0 | 0.0 | 0.00 | 0.00 | 0.00 | 34 | 1016.3 |
| 20260503230311 | 17 | 80 | 0.0 | 0.0 | 0.00 | 0.00 | 0.00 | 33 | 1016.0 |
| 20260503225808 | 17 | 83 | 1.6 | 1.6 | 0.00 | 0.00 | 0.00 | 33 | 1016.0 |
| 20260503225304 | 17 | 74 | 0.0 | 0.0 | 0.00 | 0.00 | 0.00 | 29 | 1016.1 |
| 20260503224801 | 17 | 66 | 0.0 | 1.6 | 0.00 | 0.00 | 0.00 | 30 | 1016.1 |
| 20260503224258 | 18 | 88 | 1.6 | 1.6 | 0.00 | 0.00 | 0.00 | 31 | 1016.1 |
| 20260503223756 | 18 | 74 | 0.0 | 0.0 | 0.00 | 0.00 | 0.00 | 30 | 1016.0 |
| 20260503223253 | 18 | 80 | 0.0 | 1.6 | 0.00 | 0.00 | 0.00 | 29 | 1016.0 |
| 20260503222749 | 18 | 94 | 1.6 | 3.2 | 0.00 | 0.00 | 0.00 | 29 | 1016.2 |
| 20260503222247 | 18 | 76 | 0.0 | 0.0 | 0.00 | 0.00 | 0.00 | 29 | 1016.1 |
| 20260503221745 | 18 | 77 | 0.0 | 1.6 | 0.00 | 0.00 | 0.00 | 30 | 1016.4 |
| 20260503221243 | 18 | 64 | 0.0 | 1.6 | 0.00 | 0.00 | 0.00 | 30 | 1016.3 |
| 20260503220739 | 19 | 88 | 1.6 | 3.2 | 0.00 | 0.00 | 0.00 | 28 | 1016.2 |
| 20260503220236 | 19 | 86 | 0.0 | 1.6 | 0.00 | 0.00 | 0.00 | 28 | 1016.3 |
| 20260503215733 | 18 | 74 | 0.0 | 0.0 | 0.00 | 0.00 | 0.00 | 27 | 1016.2 |
| 20260503215231 | 18 | 71 | 0.0 | 1.6 | 0.00 | 0.00 | 0.00 | 27 | 1016.2 |
| 20260503214729 | 18 | 65 | 1.6 | 1.6 | 0.00 | 0.00 | 0.00 | 28 | 1016.1 |
| 20260503214225 | 18 | 88 | 1.6 | 1.6 | 0.00 | 0.00 | 0.00 | 28 | 1016.0 |
| 20260503213723 | 19 | 71 | 1.6 | 1.6 | 0.00 | 0.00 | 0.00 | 27 | 1015.9 |
| 20260503213220 | 18 | 67 | 1.6 | 1.6 | 0.00 | 0.00 | 0.00 | 27 | 1016.0 |
| 20260503212717 | 18 | 52 | 1.6 | 1.6 | 0.00 | 0.00 | 0.00 | 27 | 1016.0 |
| 20260503212215 | 19 | 84 | 1.6 | 1.6 | 0.00 | 0.00 | 0.00 | 27 | 1016.1 |
| 20260503211712 | 20 | 71 | 1.6 | 3.2 | 0.00 | 0.00 | 0.00 | 26 | 1015.9 |
| 20260503211208 | 19 | 99 | 1.6 | 1.6 | 0.00 | 0.00 | 0.00 | 27 | 1016.1 |
| 20260503210703 | 19 | 82 | 1.6 | 3.2 | 0.00 | 0.00 | 0.00 | 27 | 1016.4 |
| 20260503210201 | 18 | 85 | 0.0 | 1.6 | 0.00 | 0.00 | 0.00 | 29 | 1016.1 |
| 20260503205655 | 18 | 78 | 1.6 | 1.6 | 0.00 | 0.00 | 0.00 | 26 | 1016.0 |
| 20260503205152 | 18 | 62 | 1.6 | 3.2 | 0.00 | 0.00 | 0.00 | 29 | 1016.0 |
| 20260503204649 | 18 | 48 | 1.6 | 1.6 | 0.00 | 0.00 | 0.00 | 26 | 1016.1 |
| 20260503204147 | 20 | 69 | 0.0 | 1.6 | 0.00 | 0.00 | 0.00 | 27 | 1016.1 |
| 20260503203643 | 19 | 59 | 1.6 | 1.6 | 0.00 | 0.00 | 0.00 | 26 | 1015.8 |
| 20260503203141 | 18 | 92 | 1.6 | 1.6 | 0.00 | 0.00 | 0.00 | 26 | 1015.8 |
| 20260503202638 | 18 | 24 | 1.6 | 3.2 | 0.00 | 0.00 | 0.00 | 28 | 1015.9 |
| 20260503202136 | 17 | 207 | 4.8 | 4.8 | 0.00 | 0.00 | 0.00 | 27 | 1015.9 |
| 20260503201634 | 18 | 78 | 1.6 | 1.6 | 0.00 | 0.00 | 0.00 | 29 | 1016.1 |
| 20260503201132 | 18 | 96 | 1.6 | 1.6 | 0.00 | 0.00 | 0.00 | 26 | 1016.1 |
| 20260503200628 | 19 | 35 | 1.6 | 1.6 | 0.00 | 0.00 | 0.00 | 26 | 1016.2 |
| 20260503200124 | 19 | 77 | 0.0 | 1.6 | 0.00 | 0.00 | 0.00 | 25 | 1016.3 |
| 20260503195621 | 18 | 3 | 3.2 | 3.2 | 0.00 | 0.00 | 0.00 | 26 | 1016.5 |
| 20260503195118 | 18 | 59 | 3.2 | 4.8 | 0.00 | 0.00 | 0.00 | 27 | 1016.7 |
| 20260503194616 | 20 | 56 | 3.2 | 3.2 | 0.00 | 0.00 | 0.00 | 25 | 1016.5 |
| 20260503194116 | 20 | 231 | 6.4 | 6.4 | 0.00 | 0.00 | 0.00 | 27 | 1016.5 |
| 20260503193613 | 18 | 59 | 1.6 | 1.6 | 0.00 | 0.00 | 0.00 | 28 | 1016.7 |
| 20260503193108 | 17 | 97 | 4.8 | 4.8 | 0.00 | 0.00 | 0.00 | 28 | 1016.7 |
| 20260503192604 | 17 | 84 | 1.6 | 3.2 | 0.00 | 0.00 | 0.00 | 28 | 1016.7 |
| 20260503192100 | 19 | 90 | 1.6 | 1.6 | 0.00 | 0.00 | 0.00 | 25 | 1016.9 |
| 20260503191557 | 18 | 78 | 1.6 | 1.6 | 0.00 | 0.00 | 0.00 | 27 | 1017.1 |
| 20260503191054 | 17 | 71 | 1.6 | 1.6 | 0.00 | 0.00 | 0.00 | 26 | 1017.1 |
| 20260503190551 | 18 | 303 | 8.0 | 9.7 | 0.00 | 0.00 | 0.00 | 25 | 1017.3 |
| 20260503190048 | 18 | 47 | 3.2 | 4.8 | 0.00 | 0.00 | 0.00 | 27 | 1017.2 |
| 20260503185544 | 18 | 46 | 1.6 | 1.6 | 0.00 | 0.00 | 0.00 | 28 | 1017.1 |
| 20260503185044 | 17 | 30 | 6.4 | 12.9 | 0.00 | 0.00 | 0.00 | 27 | 1017.0 |
| 20260503184540 | 17 | 160 | 3.2 | 4.8 | 0.00 | 0.00 | 0.00 | 28 | 1017.4 |
| 20260503184037 | 17 | 87 | 1.6 | 3.2 | 0.00 | 0.00 | 0.00 | 28 | 1017.3 |
| 20260503183534 | 17 | 61 | 3.2 | 3.2 | 0.00 | 0.00 | 0.00 | 28 | 1017.4 |
| 20260503183031 | 17 | 199 | 3.2 | 4.8 | 0.00 | 0.00 | 0.00 | 28 | 1017.3 |
| 20260503182529 | 17 | 57 | 1.6 | 1.6 | 0.00 | 0.00 | 0.00 | 27 | 1017.3 |
| 20260503182027 | 17 | 17 | 3.2 | 3.2 | 0.00 | 0.00 | 0.00 | 27 | 1017.3 |
| 20260503181523 | 17 | 352 | 3.2 | 4.8 | 0.00 | 0.00 | 0.00 | 25 | 1017.6 |
| 20260503181020 | 17 | 273 | 4.8 | 6.4 | 0.00 | 0.00 | 0.00 | 28 | 1017.4 |
| 20260503180517 | 17 | 89 | 1.6 | 1.6 | 0.00 | 0.00 | 0.00 | 26 | 1017.4 |
| 20260503180014 | 17 | 92 | 1.6 | 3.2 | 0.00 | 0.00 | 0.00 | 28 | 1017.5 |
| 20260503175512 | 16 | 85 | 1.6 | 1.6 | 0.00 | 0.00 | 0.00 | 28 | 1017.5 |
| 20260503175008 | 16 | 86 | 1.6 | 1.6 | 0.00 | 0.00 | 0.00 | 27 | 1017.3 |
| 20260503174506 | 17 | 64 | 1.6 | 1.6 | 0.00 | 0.00 | 0.00 | 27 | 1017.4 |
| 20260503174002 | 17 | 73 | 0.0 | 1.6 | 0.00 | 0.00 | 0.00 | 26 | 1017.7 |
| 20260503173457 | 17 | 19 | 3.2 | 4.8 | 0.00 | 0.00 | 0.00 | 27 | 1017.7 |
| 20260503172954 | 16 | 67 | 3.2 | 3.2 | 0.00 | 0.00 | 0.00 | 30 | 1017.8 |
| 20260503172452 | 16 | 77 | 3.2 | 3.2 | 0.00 | 0.00 | 0.00 | 29 | 1017.7 |
| 20260503171948 | 16 | 77 | 1.6 | 3.2 | 0.00 | 0.00 | 0.00 | 30 | 1017.7 |
| 20260503171445 | 16 | 48 | 4.8 | 6.4 | 0.00 | 0.00 | 0.00 | 29 | 1017.9 |
| 20260503170942 | 16 | 98 | 1.6 | 1.6 | 0.00 | 0.00 | 0.00 | 30 | 1017.8 |
| 20260503170438 | 15 | 61 | 3.2 | 3.2 | 0.00 | 0.00 | 0.00 | 30 | 1018.0 |
| 20260503150831 | 13 | 63 | 1.6 | 3.2 | 0.00 | 0.00 | 0.00 | 36 | 1018.5 |
| 20260503150327 | 13 | 35 | 3.2 | 3.2 | 0.00 | 0.00 | 0.00 | 37 | 1018.5 |
| 20260503140251 | 12 | 50 | 1.6 | 1.6 | 0.00 | 0.00 | 0.00 | 41 | 1018.4 |
| 20260503131221 | 11 | 42 | 3.2 | 4.8 | 0.00 | 0.00 | 0.00 | 45 | 1018.0 |
| 20260503130718 | 11 | 72 | 1.6 | 1.6 | 0.00 | 0.00 | 0.00 | 47 | 1018.2 |
| 20260503130215 | 11 | 75 | 1.6 | 1.6 | 0.00 | 0.00 | 0.00 | 47 | 1018.1 |
| 20260503120141 | 9 | 81 | 0.0 | 0.0 | 0.00 | 0.00 | 0.00 | 55 | 1017.4 |
| 20260503110609 | 9 | 63 | 1.6 | 1.6 | 0.00 | 0.00 | 0.00 | 52 | 1017.0 |
| 20260503110106 | 9 | 74 | 0.0 | 1.6 | 0.00 | 0.00 | 0.00 | 53 | 1016.9 |
| 20260503090455 | 10 | 67 | 0.0 | 0.0 | 0.00 | 0.00 | 0.00 | 60 | 1014.9 |
| 20260503081422 | 10 | 71 | 1.6 | 1.6 | 0.00 | 0.00 | 0.00 | 64 | 1014.3 |
| 20260503080919 | 10 | 62 | 0.0 | 1.6 | 0.00 | 0.00 | 0.00 | 65 | 1014.1 |
| 20260503080416 | 10 | 75 | 1.6 | 1.6 | 0.00 | 0.00 | 0.00 | 68 | 1014.1 |
| 20260503072852 | 10 | 76 | 0.0 | 0.0 | 0.00 | 0.00 | 0.00 | 72 | 1013.8 |
| 20260503072349 | 10 | 73 | 0.0 | 1.6 | 0.00 | 0.00 | 0.00 | 73 | 1013.8 |
| 20260503071845 | 10 | 76 | 0.0 | 0.0 | 0.00 | 0.00 | 0.00 | 73 | 1013.7 |
| 20260503071343 | 10 | 76 | 0.0 | 0.0 | 0.00 | 0.00 | 0.00 | 73 | 1013.5 |
| 20260503070839 | 10 | 75 | 0.0 | 0.0 | 0.00 | 0.00 | 0.00 | 71 | 1013.7 |
| 20260503070337 | 10 | 75 | 0.0 | 0.0 | 0.00 | 0.00 | 0.00 | 71 | 1013.4 |
| 20260503060302 | 7 | 77 | 0.0 | 0.0 | 0.00 | 0.00 | 0.00 | 86 | 1013.3 |
| 20260503054749 | 7 | 80 | 0.0 | 0.0 | 0.00 | 0.00 | 0.00 | 88 | 1013.3 |
| 20260503054246 | 7 | 81 | 0.0 | 0.0 | 0.00 | 0.00 | 0.00 | 88 | 1013.1 |
| 20260503053744 | 7 | 81 | 0.0 | 0.0 | 0.00 | 0.00 | 0.00 | 89 | 1013.3 |
| 20260503053242 | 7 | 81 | 0.0 | 0.0 | 0.00 | 0.00 | 0.00 | 88 | 1013.2 |
| 20260503052738 | 7 | 81 | 0.0 | 0.0 | 0.00 | 0.00 | 0.00 | 88 | 1013.0 |
| 20260503052235 | 7 | 81 | 0.0 | 0.0 | 0.00 | 0.00 | 0.00 | 88 | 1013.2 |
| 20260503051730 | 7 | 81 | 0.0 | 0.0 | 0.00 | 0.00 | 0.00 | 88 | 1013.3 |
| 20260503051228 | 7 | 81 | 0.0 | 0.0 | 0.00 | 0.00 | 0.00 | 87 | 1013.1 |
| 20260503050724 | 7 | 84 | 0.0 | 0.0 | 0.00 | 0.00 | 0.00 | 87 | 1013.1 |
| 20260503050221 | 7 | 82 | 0.0 | 0.0 | 0.00 | 0.00 | 0.00 | 86 | 1013.1 |
| 20260503045718 | 8 | 82 | 0.0 | 0.0 | 0.00 | 0.00 | 0.00 | 86 | 1013.1 |
| 20260503045216 | 7 | 82 | 0.0 | 0.0 | 0.00 | 0.00 | 0.00 | 86 | 1013.3 |
| 20260503044712 | 7 | 82 | 0.0 | 0.0 | 0.00 | 0.00 | 0.00 | 87 | 1013.4 |
| 20260503044210 | 7 | 82 | 0.0 | 0.0 | 0.00 | 0.00 | 0.00 | 88 | 1013.4 |
| 20260503043706 | 7 | 82 | 0.0 | 0.0 | 0.00 | 0.00 | 0.00 | 89 | 1013.4 |
| 20260503043204 | 7 | 82 | 0.0 | 0.0 | 0.00 | 0.00 | 0.00 | 89 | 1013.5 |
| 20260503042659 | 7 | 79 | 0.0 | 0.0 | 0.00 | 0.00 | 0.00 | 89 | 1013.2 |
| 20260503042156 | 8 | 79 | 0.0 | 0.0 | 0.00 | 0.00 | 0.00 | 89 | 1013.3 |
| 20260503041652 | 8 | 79 | 0.0 | 0.0 | 0.00 | 0.00 | 0.00 | 89 | 1013.3 |
| 20260503041150 | 8 | 82 | 0.0 | 0.0 | 0.00 | 0.00 | 0.00 | 89 | 1013.4 |
| 20260503040647 | 8 | 82 | 0.0 | 0.0 | 0.00 | 0.00 | 0.00 | 88 | 1013.5 |
| 20260503040145 | 8 | 79 | 0.0 | 0.0 | 0.00 | 0.00 | 0.00 | 88 | 1013.2 |
| 20260503035641 | 8 | 80 | 0.0 | 0.0 | 0.00 | 0.03 | 0.03 | 88 | 1013.2 |
| 20260503035139 | 8 | 80 | 0.0 | 0.0 | 0.00 | 0.03 | 0.03 | 88 | 1013.3 |
| 20260503034636 | 8 | 80 | 0.0 | 0.0 | 0.00 | 0.03 | 0.03 | 89 | 1013.5 |
| 20260503034133 | 8 | 80 | 0.0 | 0.0 | 0.00 | 0.03 | 0.03 | 88 | 1013.5 |
| 20260503033630 | 8 | 80 | 0.0 | 0.0 | 0.00 | 0.03 | 0.03 | 88 | 1013.4 |
| 20260503033128 | 8 | 80 | 0.0 | 0.0 | 0.00 | 0.03 | 0.03 | 87 | 1013.2 |
| 20260503032626 | 8 | 80 | 0.0 | 0.0 | 0.00 | 0.03 | 0.03 | 87 | 1013.1 |
| 20260503032124 | 8 | 80 | 0.0 | 0.0 | 0.00 | 0.03 | 0.03 | 87 | 1013.1 |
| 20260503031622 | 9 | 80 | 0.0 | 0.0 | 0.00 | 0.03 | 0.03 | 87 | 1013.3 |
| 20260503031119 | 9 | 80 | 0.0 | 0.0 | 0.00 | 0.03 | 0.03 | 87 | 1013.1 |
| 20260503030615 | 9 | 80 | 0.0 | 0.0 | 0.00 | 0.03 | 0.03 | 86 | 1013.0 |
| 20260503030112 | 9 | 79 | 0.0 | 0.0 | 0.00 | 0.03 | 0.03 | 85 | 1013.1 |
| 20260503025609 | 9 | 79 | 0.0 | 0.0 | 0.00 | 0.03 | 0.03 | 83 | 1013.3 |
| 20260503025107 | 9 | 79 | 0.0 | 0.0 | 0.00 | 0.03 | 0.03 | 83 | 1013.4 |
| 20260503024603 | 9 | 80 | 0.0 | 0.0 | 0.00 | 0.03 | 0.03 | 83 | 1013.2 |
| 20260503024100 | 9 | 80 | 0.0 | 0.0 | 0.00 | 0.03 | 0.03 | 82 | 1013.2 |
| 20260503023556 | 10 | 81 | 0.0 | 0.0 | 0.00 | 0.03 | 0.03 | 83 | 1013.3 |
| 20260503023054 | 10 | 81 | 0.0 | 0.0 | 0.00 | 0.03 | 0.03 | 83 | 1013.3 |
| 20260503022550 | 10 | 81 | 0.0 | 0.0 | 0.00 | 0.03 | 0.03 | 83 | 1013.2 |
| 20260503022044 | 10 | 81 | 0.0 | 0.0 | 0.00 | 0.03 | 0.03 | 82 | 1013.3 |
| 20260503021542 | 10 | 81 | 0.0 | 0.0 | 0.00 | 0.03 | 0.03 | 83 | 1013.3 |
| 20260503021038 | 10 | 81 | 0.0 | 0.0 | 0.00 | 0.03 | 0.03 | 83 | 1013.1 |
| 20260503020536 | 10 | 85 | 0.0 | 0.0 | 0.00 | 0.03 | 0.03 | 84 | 1013.2 |
| 20260503020033 | 10 | 80 | 0.0 | 0.0 | 0.00 | 0.03 | 0.03 | 83 | 1013.1 |
| 20260503015529 | 10 | 81 | 0.0 | 0.0 | 0.00 | 0.03 | 0.03 | 83 | 1013.4 |
| 20260503015026 | 10 | 81 | 0.0 | 0.0 | 0.00 | 0.03 | 0.03 | 83 | 1013.2 |
| 20260503014522 | 10 | 81 | 0.0 | 0.0 | 0.00 | 0.03 | 0.03 | 82 | 1013.2 |
| 20260503014021 | 10 | 81 | 0.0 | 0.0 | 0.00 | 0.03 | 0.03 | 82 | 1013.1 |
| 20260503013517 | 10 | 78 | 0.0 | 0.0 | 0.00 | 0.03 | 0.03 | 81 | 1013.1 |
| 20260503013015 | 10 | 80 | 0.0 | 0.0 | 0.00 | 0.03 | 0.03 | 82 | 1013.2 |
| 20260503012513 | 10 | 80 | 0.0 | 0.0 | 0.00 | 0.03 | 0.03 | 81 | 1013.0 |
| 20260503012009 | 10 | 80 | 0.0 | 0.0 | 0.00 | 0.03 | 0.03 | 81 | 1013.2 |
| 20260503011506 | 10 | 81 | 0.0 | 0.0 | 0.00 | 0.03 | 0.03 | 79 | 1012.8 |
| 20260503011003 | 10 | 81 | 0.0 | 0.0 | 0.00 | 0.03 | 0.03 | 78 | 1012.8 |
| 20260503010459 | 10 | 77 | 0.0 | 0.0 | 0.00 | 0.03 | 0.03 | 76 | 1012.8 |
| 20260503005956 | 11 | 76 | 0.0 | 0.0 | 0.00 | 0.03 | 0.03 | 75 | 1012.7 |
| 20260503005453 | 11 | 76 | 0.0 | 0.0 | 0.00 | 0.03 | 0.03 | 75 | 1012.7 |
| 20260503004950 | 11 | 77 | 0.0 | 0.0 | 0.00 | 0.03 | 0.03 | 74 | 1012.6 |
| 20260503004447 | 11 | 76 | 0.0 | 0.0 | 0.00 | 0.03 | 0.03 | 73 | 1012.5 |
| 20260503003945 | 11 | 81 | 0.0 | 0.0 | 0.00 | 0.03 | 0.03 | 73 | 1012.5 |
| 20260503003441 | 11 | 78 | 0.0 | 0.0 | 0.00 | 0.03 | 0.03 | 72 | 1012.3 |
| 20260503002938 | 11 | 78 | 0.0 | 0.0 | 0.00 | 0.03 | 0.03 | 71 | 1012.5 |
| 20260503002435 | 11 | 78 | 0.0 | 0.0 | 0.00 | 0.03 | 0.03 | 70 | 1012.4 |
| 20260503001932 | 11 | 79 | 0.0 | 0.0 | 0.00 | 0.03 | 0.03 | 71 | 1012.4 |
| 20260503001428 | 11 | 79 | 0.0 | 0.0 | 0.00 | 0.03 | 0.03 | 69 | 1012.5 |
| 20260503000926 | 11 | 78 | 0.0 | 0.0 | 0.00 | 0.03 | 0.03 | 69 | 1012.3 |
| 20260503000423 | 12 | 78 | 0.0 | 0.0 | 0.00 | 0.03 | 0.03 | 67 | 1012.2 |